Tracking 25701 objects as of 4-Jul-2022
HD Live streaming from Space Station
objects crossing your sky now

COSMOS 970 DEB

Track COSMOS 970 DEB now!
10-day predictions


NORAD ID: 10570
Int'l Code: 1977-121M
Perigee: 965.3 km
Apogee: 996.0 km
Inclination: 65.4 °
Period: 104.6 minutes
Semi major axis: 7351 km
RCS: 0.049 m2 (small)
Launch date: December 21, 1977
Source: Commonwealth of Independent States (former USSR) (CIS)
Launch site: TYURATAM MISSILE AND SPACE COMPLEX (TTMTR)

Note: This is SATELLITE DEBRIS
aabbcc
Your satellite tracking list
Your tracking list is empty




NASA's NSSDC Master Catalog

Two Line Element Set (TLE):
1 10570U 77121M   22184.34722620  .00000939  00000-0  10296-2 0  9995
2 10570  65.3629 150.3044 0020881 259.9220 251.7163 13.77280939208184
Source of the keplerian elements: AFSPC